Terug naar catalogus

YAOGAN-34 02

ActiefMilitairLEO
NORAD 52084·PAYLOAD·🇨🇳 China

Gelanceerd Mar 17, 2022 vanaf Jiuquan Satellite Launch Center

Loading…

Volgende Passages (komende 24 uur)

TLE

VersSource: Space-Track

Epoch: Sep 14, 2026, 22:57 UTC

1 52084U 22027A   26257.95693067 -.00000088  00000-0  39654-5 0  9998
2 52084  63.3972 330.4821 0059791 354.9412   5.1003 13.45440273220995

Volg YAOGAN-34 02 in realtime met AllMySat

Download on the App Store